NOAA 16 DEB, 41307

Orbit data source: Space-Track

NOAA 16 DEB, 41307 is space debris in SSO originally from a launch on Thu, 21 Sep 2000 UTC launched from the Air Force Western Test Range (AFWTR). Debris objects in space refer to the collection of defunct objects orbiting the Earth. Examples of debris include non-operational satellites, rocket bodies, and fragments generated from explosions, collisions, or faulty payload assembly.

Loading next visibility...
Identifier
41307, 2000-055HK
Orbit
SSO
Country
Flag of USUS
Related business
Manufacturer
Unknown
Mission
Spacecraft
Bus & Motor
Unknown
Mass
Unknown
Launch date (UTC)
2000-09-21 (25 years ago)
Launch vehicle
Unknown
Launch site
Air Force Western Test Range (AFWTR)
Object type
Payload
Rocket body
Debris
Shape & HBR
Unknown shape, 0.1 m
Radar Cross Section
Small (<0.1 m²)

Expand to show TLE details & history
Last TLE update: 17 hours ago

TLE from 17 hours ago
0 NOAA 16 DEB
1 41307U 00055HK  25302.42947801  .00062936  00000-0  89676-2 0  9996
2 41307  98.9148 110.6683 0008921 226.9742 133.0718 14.76442925511096
Epoch: 2025-10-29T10:18Z
TLE epoch observation values (Epoch: 2025-10-29T10:18:26.900Z)
Latitude
-0.00002°
Longitude
-81.94652°
Altitude
647.839 km
Speed
7.532 km/s
True Right ascension
07h 22m 40s
True Declination
0° 00' 00"
Sunlit
Object was in daylight at epoch
Visualization orbit readout
Latitude
Unknown
Longitude
Unknown
Altitude
Unknown
Speed
Unknown
Apparent Right ascension
Unknown
Apparent Declination
Unknown
Sunlit
N/A
Visualization observer readout
Local Sidereal Time
22:39:57
Azimuth
Unknown
Elevation
Unknown
Doppler factor
Unknown
Orbital elements
Apogee altitude
643.927 km
Perigee altitude
631.41 km
Semi-major axis
7,015.805 km
Eccentricity
0.00089
Inclination
98.9148°
RAAN
110.6683°
Arg. of periapsis
226.9742°
True anomaly
133.14642°
Mean anomaly
133.0718°
Eccentric anomaly
133.10912°
Mean motion
3.6934 °/min
Orbital period
97.47 mins
BSTAR
0.0089676
Loading maneuver chart data...
Computing Atmospheric mass density...

Documentation

Showing up to 5 results
|